Location: Ceske Budejovice
(48.9830°N, 14.4670°E)
Time: 19:44:41
(UTC+02:00)

ISS - Pass Details

Date: 03 July 2022
Orbit: 412 x 419 km, 51.6° (Epoch: 09 August)

Event Time Altitude Azimuth Distance (km) Brightness Sun altitude
Exits shadow 01:49:28 13° 115° (ESE) 1,327 -1.4 -17.4°
Drops below altitude 10° 01:50:19 10° 101° (ESE) 1,496 -1.0 -17.4°
Sets 01:53:06 0° 77° (ENE) 2,366 0.4 -17.3°
